{"data":{"norad_id":63269,"intl_designator":"2025-053E","name":"STARLINK-11638 [DTC]","alt_names":[],"object_type":"PAYLOAD","status":"ACTIVE","operator":null,"country":"US","launch_date":"2025-03-15","launch_site_code":"AFETR","launch_vehicle":null,"mission":null,"orbit_class":"UNKNOWN","rcs_meters":null,"size_class":null,"mass_kg":null,"dimensions":null,"purposes":["comms"],"wikipedia_slug":null,"has_3d_model":false,"image_url":null,"decayed_at":null,"tle_current":{"epoch":"2026-09-20T09:20:34.663776Z","epoch_age_seconds":168416,"freshness":"FRESH","line1":"1 63269U 25053E   26263.38929009  .00214918  00000+0  16250-2 0  9990","line2":"2 63269  42.9992  18.3769 0001680 308.5997  51.4720 15.70993532 88293","mean_motion":15.70993532,"eccentricity":0.000168,"inclination_deg":42.9992,"raan_deg":18.3769,"arg_perigee_deg":308.5997,"mean_anomaly_deg":51.472,"bstar":0.001625,"rev_number":8829,"period_min":91.661739572331,"perigee_km":354.92492964711,"apogee_km":357.18761858721,"semimajor_km":6734.1932741172,"source":"CELESTRAK","updated_at":"2026-09-21T09:00:34.963016Z"}}}